Location: Unspecified
(0.0000°N, 0.0000°E)
Time: 16:53:24
(UTC+00:00)

STARLINK-35268 - Visible Passes

Search period start: 14 January 2026 00:00
Search period end: 24 January 2026 00:00
Orbit: 548 x 551 km, 97.6° (Epoch: 14 January)

Date Brightness Start Highest point End Pass type
(mag) Time Alt. Az. Time Alt. Az. Time Alt. Az.
14 Jan 5.2 20:02:49 13° SSE 20:02:49 13° SSE 20:03:14 10° S visible
15 Jan 5.1 19:58:18 12° SSE 19:58:18 12° SSE 19:58:39 10° SSE visible
16 Jan 5.2 19:53:47 11° SSE 19:53:47 11° SSE 19:54:01 10° SSE visible
17 Jan 5.2 19:49:15 10° SSE 19:49:15 10° SSE 19:49:22 10° SSE visible
